EA3GKP-1 Weather Reports


Display with metric or nautical units.
time (UTC)temp
F
wind
direction
speed
MPH
gust
MPH
rain 1hr
in
rain 24hr
in
rain mn
in
humidity
%
barometer
mb
20260508182258 64 9 0.0 0.0 0.00 0.00 0.00 8 1013.0
20260508181322 64 9 0.0 0.0 0.00 0.00 0.00 10 1013.0
20260508180344 64 8 0.0 0.0 0.00 0.00 0.00 10 1013.0
20260508175404 65 10 0.0 0.0 0.00 0.00 0.00 10 1013.0
20260508172511 65 8 0.0 0.0 0.00 0.00 0.00 8 1013.0
20260508171533 65 6 0.0 0.0 0.00 0.00 0.00 8 1013.0
20260508170557 65 6 0.0 0.0 0.00 0.00 0.00 8 1013.0
20260508165618 66 8 0.0 0.0 0.00 0.00 0.00 8 1013.0
20260508163705 66 5 0.0 0.0 0.00 0.00 0.00 8 1013.0
20260508162726 66 8 0.0 0.0 0.00 0.00 0.00 8 1013.0
20260508161746 66 5 0.0 0.0 0.00 0.00 0.00 8 1013.0
20260508160809 67 5 0.0 0.0 0.00 0.00 0.00 8 1013.0
20260508155834 67 6 0.0 0.0 0.00 0.00 0.00 8 1013.0
20260508153917 66 7 0.0 0.0 0.00 0.00 0.00 8 1013.0
20260508151020 66 7 0.0 0.0 0.00 0.00 0.00 8 1013.0
20260508150045 66 8 0.0 0.0 0.00 0.00 0.00 8 1013.0
20260508145105 66 7 0.0 0.0 0.00 0.00 0.00 10 1013.0
20260508143151 66 8 0.0 0.0 0.00 0.00 0.00 10 1013.0
20260508142213 67 7 0.0 0.0 0.00 0.00 0.00 8 1013.0
20260508141238 67 8 0.0 0.0 0.00 0.00 0.00 8 1013.0
20260508140255 67 5 0.0 0.0 0.00 0.00 0.00 8 1013.0
20260508135318 68 6 0.0 0.0 0.00 0.00 0.00 8 1013.0
20260508134340 68 7 0.0 0.0 0.00 0.00 0.00 8 1013.0
20260508132424 66 8 0.0 0.0 0.00 0.00 0.00 8 1013.0
20260508131451 67 4 0.0 0.0 0.00 0.00 0.00 8 1013.0
20260508130511 67 5 0.0 0.0 0.00 0.00 0.00 8 1014.0
20260508125533 69 4 0.0 0.0 0.00 0.00 0.00 7 1013.0
20260508124554 69 4 0.0 0.0 0.00 0.00 0.00 8 1013.0
20260508123615 69 6 0.0 0.0 0.00 0.00 0.00 8 1013.0
20260508122639 69 4 0.0 0.0 0.00 0.00 0.00 8 1013.0
20260508121659 68 6 0.0 0.0 0.00 0.00 0.00 8 1013.0
20260508120721 68 5 0.0 0.0 0.00 0.00 0.00 8 1013.0
20260508115743 68 5 0.0 0.0 0.00 0.00 0.00 8 1014.0
20260508114805 68 4 0.0 0.0 0.00 0.00 0.00 7 1014.0
20260508113829 67 5 0.0 0.0 0.00 0.00 0.00 8 1014.0
20260508112850 67 6 0.0 0.0 0.00 0.00 0.00 8 1013.0
20260508111913 67 4 0.0 0.0 0.00 0.00 0.00 8 1014.0
20260508110936 67 6 0.0 0.0 0.00 0.00 0.00 8 1013.0
20260508105958 67 5 0.0 0.0 0.00 0.00 0.00 8 1014.0
20260508104043 68 4 0.0 0.0 0.00 0.00 0.00 8 1013.0
20260508102127 68 7 0.0 0.0 0.00 0.00 0.00 8 1014.0
20260508101147 67 5 0.0 0.0 0.00 0.00 0.00 8 1014.0
20260508100211 67 8 0.0 0.0 0.00 0.00 0.00 8 1014.0
20260508095235 67 6 0.0 0.0 0.00 0.00 0.00 8 1014.0
20260508094253 68 6 0.0 0.0 0.00 0.00 0.00 8 1014.0
20260508093317 67 8 0.0 0.0 0.00 0.00 0.00 8 1014.0
20260508092340 66 7 0.0 0.0 0.00 0.00 0.00 8 1014.0
20260508091359 67 6 0.0 0.0 0.00 0.00 0.00 8 1014.0
20260508090422 68 7 0.0 0.0 0.00 0.00 0.00 8 1014.0
20260508085446 68 7 0.0 0.0 0.00 0.00 0.00 8 1014.0
20260508083528 65 9 0.0 0.0 0.00 0.00 0.00 10 1013.0
20260508082550 66 11 0.0 0.0 0.00 0.00 0.00 10 1013.0
20260508081615 66 9 0.0 0.0 0.00 0.00 0.00 10 1013.0
20260508080634 66 10 0.0 0.0 0.00 0.00 0.00 10 1013.0
20260508074719 67 9 0.0 0.0 0.00 0.00 0.00 10 1013.0
20260508073743 67 10 0.0 0.0 0.00 0.00 0.00 10 1013.0
20260508072803 68 9 0.0 0.0 0.00 0.00 0.00 10 1013.0
20260508071825 67 9 0.0 0.0 0.00 0.00 0.00 10 1013.0
20260508070847 66 9 0.0 0.0 0.00 0.00 0.00 10 1012.0
20260508065909 65 12 0.0 0.0 0.00 0.00 0.00 10 1012.0
20260508064932 64 12 0.0 0.0 0.00 0.00 0.00 10 1012.0
20260508063954 63 13 0.0 0.0 0.00 0.00 0.00 10 1012.0
20260508063018 63 13 0.0 0.0 0.00 0.00 0.00 10 1012.0
20260508062038 62 12 0.0 0.0 0.00 0.00 0.00 12 1012.0
20260508061101 62 14 0.0 0.0 0.00 0.00 0.00 12 1012.0
20260508060125 61 12 0.0 0.0 0.00 0.00 0.00 10 1012.0
20260508054208 60 15 0.0 0.0 0.00 0.00 0.00 12 1012.0
20260508053231 59 13 0.0 0.0 0.00 0.00 0.00 12 1012.0
20260508052252 58 14 0.0 0.0 0.00 0.00 0.00 12 1012.0
20260508051314 58 14 0.0 0.0 0.00 0.00 0.00 12 1012.0
20260508045357 57 16 0.0 0.0 0.00 0.00 0.00 12 1012.0
20260508044421 57 16 0.0 0.0 0.00 0.00 0.00 12 1012.0
20260508043443 57 15 0.0 0.0 0.00 0.00 0.00 12 1012.0
20260508042504 58 14 0.0 0.0 0.00 0.00 0.00 12 1012.0
20260508041527 58 16 0.0 0.0 0.00 0.00 0.00 12 1012.0
20260508040548 57 15 0.0 0.0 0.00 0.00 0.00 12 1012.0
20260508035612 58 14 0.0 0.0 0.00 0.00 0.00 12 1012.0
20260508034632 59 14 0.0 0.0 0.00 0.00 0.00 12 1012.0
20260508033654 59 16 0.0 0.0 0.00 0.00 0.00 12 1011.0
20260508032718 59 15 0.0 0.0 0.00 0.00 0.00 12 1012.0
20260508031739 59 14 0.0 0.0 0.00 0.00 0.00 12 1012.0
20260508030801 59 17 0.0 0.0 0.00 0.00 0.00 12 1012.0
20260508025823 59 17 0.0 0.0 0.00 0.00 0.00 13 1012.0
20260508024845 58 17 0.0 0.0 0.00 0.00 0.00 13 1012.0
20260508023907 59 17 0.0 0.0 0.00 0.00 0.00 13 1012.0
20260508022930 59 15 0.0 0.0 0.00 0.00 0.00 13 1012.0
20260508021952 60 16 0.0 0.0 0.00 0.00 0.00 12 1012.0
20260508021014 60 14 0.0 0.0 0.00 0.00 0.00 12 1012.0
20260508020036 60 16 0.0 0.0 0.00 0.00 0.00 12 1012.0
20260508014120 60 16 0.0 0.0 0.00 0.00 0.00 12 1012.0
20260508013142 60 14 0.0 0.0 0.00 0.00 0.00 12 1012.0
20260508012205 60 15 0.0 0.0 0.00 0.00 0.00 12 1012.0
20260508011228 60 16 0.0 0.0 0.00 0.00 0.00 12 1012.0
20260508010249 60 14 0.0 0.0 0.00 0.00 0.00 12 1012.0
20260508005311 61 14 0.0 0.0 0.00 0.00 0.00 12 1012.0
20260508004333 61 14 0.0 0.0 0.00 0.00 0.00 12 1012.0
20260508003358 61 13 0.0 0.0 0.00 0.00 0.00 12 1012.0
20260508002417 61 13 0.0 0.0 0.00 0.00 0.00 12 1013.0
20260508001440 61 15 0.0 0.0 0.00 0.00 0.00 12 1013.0
20260508000502 61 15 0.0 0.0 0.00 0.00 0.00 12 1013.0
20260507235524 61 14 0.0 0.0 0.00 0.00 0.00 12 1013.0
20260507234546 61 16 0.0 0.0 0.00 0.00 0.00 12 1013.0
20260507233610 61 14 0.0 0.0 0.00 0.00 0.00 12 1013.0
20260507232630 61 16 0.0 0.0 0.00 0.00 0.00 13 1013.0
20260507231655 62 14 0.0 0.0 0.00 0.00 0.00 12 1013.0
20260507230715 62 16 0.0 0.0 0.00 0.00 0.00 12 1013.0
20260507224759 62 15 0.0 0.0 0.00 0.00 0.00 12 1013.0
20260507223821 61 15 0.0 0.0 0.00 0.00 0.00 13 1013.0
20260507222843 62 15 0.0 0.0 0.00 0.00 0.00 13 1013.0
20260507221905 62 16 0.0 0.0 0.00 0.00 0.00 13 1013.0
20260507220927 62 15 0.0 0.0 0.00 0.00 0.00 13 1013.0
20260507215950 62 14 0.0 0.0 0.00 0.00 0.00 12 1013.0
20260507215012 62 13 0.0 0.0 0.00 0.00 0.00 12 1013.0
20260507211140 62 13 0.0 0.0 0.00 0.00 0.00 12 1013.0
20260507205227 63 12 0.0 0.0 0.00 0.00 0.00 12 1013.0
20260507204248 63 14 0.0 0.0 0.00 0.00 0.00 12 1013.0
20260507203309 63 13 0.0 0.0 0.00 0.00 0.00 12 1013.0
20260507202331 62 12 0.0 0.0 0.00 0.00 0.00 12 1013.0
20260507201355 62 13 0.0 0.0 0.00 0.00 0.00 12 1013.0
20260507200417 62 14 0.0 0.0 0.00 0.00 0.00 12 1013.0
20260507194501 63 14 0.0 0.0 0.00 0.00 0.00 12 1013.0
20260507192546 63 12 0.0 0.0 0.00 0.00 0.00 12 1013.0
20260507191606 63 13 0.0 0.0 0.00 0.00 0.00 12 1012.0
20260507190628 63 12 0.0 0.0 0.00 0.00 0.00 12 1012.0
20260507185653 63 13 0.0 0.0 0.00 0.00 0.00 12 1012.0
20260507184713 63 13 0.0 0.0 0.00 0.00 0.00 12 1012.0
20260507182759 63 12 0.0 0.0 0.00 0.00 0.00 10 1012.0